• In Deutschland
  • Länderverzeichnis
  • Für 7 Tage
  • Wassertemperatur
  • Satellitenkarten
  • Wetterkarte
  • Widgets
  • user-avatar
    Anmelden

    Stündliche Wetter Norderstedt

    Heute, 16 Juli, Montag

    Zeit Temperatur Niederschläge Wind Luftdruck Luftfeuchtigkeit
    00:00 +16°C° 0 mm 1 m/S 760 mmHg 86%
    01:00 +15°C° 0 mm 1 m/S 759 mmHg 89%
    02:00 +15°C° 0 mm 1 m/S 759 mmHg 90%
    03:00 +15°C° 0 mm 1 m/S 759 mmHg 90%
    04:00 +15°C° 0 mm 1 m/S 759 mmHg 91%
    05:00 +16°C° 0 mm 1 m/S 759 mmHg 85%
    06:00 +19°C° 0 mm 1 m/S 759 mmHg 80%
    07:00 +21°C° 0 mm 1 m/S 759 mmHg 72%
    08:00 +23°C° 0 mm 1 m/S 759 mmHg 65%
    09:00 +24°C° 0 mm 1 m/S 759 mmHg 59%
    10:00 +26°C° 0 mm 2 m/S 759 mmHg 52%
    11:00 +26°C° 0 mm 2 m/S 758 mmHg 49%
    12:00 +27°C° 0 mm 2 m/S 758 mmHg 46%
    13:00 +28°C° 0 mm 2 m/S 758 mmHg 44%
    14:00 +28°C° 0 mm 2 m/S 757 mmHg 45%
    15:00 +28°C° 0 mm 3 m/S 757 mmHg 45%
    16:00 +28°C° 0 mm 3 m/S 757 mmHg 46%
    17:00 +27°C° 0 mm 3 m/S 757 mmHg 50%
    18:00 +26°C° 0 mm 3 m/S 757 mmHg 54%
    19:00 +25°C° 0 mm 2 m/S 757 mmHg 59%
    20:00 +23°C° 0 mm 2 m/S 757 mmHg 66%
    21:00 +20°C° 0 mm 2 m/S 757 mmHg 73%
    22:00 +18°C° 0 mm 2 m/S 757 mmHg 81%
    23:00 +19°C° 0 mm 1 m/S 757 mmHg 83%

    Morgen, 17 Juli, Dienstag

    Zeit Temperatur Niederschläge Wind Luftdruck Luftfeuchtigkeit
    00:00 +18°C° 0 mm 1 m/S 757 mmHg 85%
    01:00 +18°C° 0 mm 1 m/S 757 mmHg 86%
    02:00 +16°C° 0 mm 1 m/S 757 mmHg 87%
    03:00 +16°C° 0 mm 1 m/S 757 mmHg 88%
    04:00 +16°C° 0 mm 1 m/S 757 mmHg 88%
    05:00 +18°C° 0 mm 1 m/S 757 mmHg 82%
    06:00 +20°C° 0 mm 1 m/S 757 mmHg 76%
    07:00 +22°C° 0 mm 1 m/S 757 mmHg 70%
    08:00 +24°C° 0 mm 1 m/S 757 mmHg 63%
    09:00 +25°C° 0 mm 1 m/S 757 mmHg 56%
    10:00 +27°C° 0 mm 1 m/S 757 mmHg 49%
    11:00 +28°C° 0 mm 2 m/S 757 mmHg 45%
    12:00 +29°C° 0 mm 2 m/S 757 mmHg 42%
    13:00 +30°C° 0 mm 2 m/S 757 mmHg 39%
    14:00 +30°C° 0 mm 3 m/S 757 mmHg 38%
    15:00 +30°C° 0 mm 3 m/S 756 mmHg 38%
    16:00 +30°C° 0 mm 3 m/S 756 mmHg 37%
    17:00 +29°C° 0 mm 3 m/S 756 mmHg 42%
    18:00 +28°C° 0 mm 2 m/S 756 mmHg 47%
    19:00 +27°C° 0 mm 2 m/S 757 mmHg 52%
    20:00 +24°C° 0 mm 2 m/S 757 mmHg 59%
    21:00 +21°C° 0 mm 2 m/S 757 mmHg 65%
    22:00 +20°C° 0 mm 1 m/S 757 mmHg 72%
    23:00 +18°C° 0 mm 2 m/S 758 mmHg 77%

    übermorgen, 18 Juli, Mittwoch

    Zeit Temperatur Niederschläge Wind Luftdruck Luftfeuchtigkeit
    00:00 +18°C° 0 mm 2 m/S 758 mmHg 81%
    01:00 +17°C° 0 mm 3 m/S 758 mmHg 85%
    02:00 +16°C° 0 mm 3 m/S 758 mmHg 88%
    03:00 +16°C° 0 mm 3 m/S 758 mmHg 91%
    04:00 +16°C° 0 mm 3 m/S 758 mmHg 95%
    05:00 +17°C° 0 mm 3 m/S 759 mmHg 91%
    06:00 +18°C° 0 mm 3 m/S 759 mmHg 87%
    07:00 +18°C° 0 mm 3 m/S 759 mmHg 83%
    08:00 +20°C° 0 mm 4 m/S 759 mmHg 75%
    09:00 +21°C° 0 mm 4 m/S 759 mmHg 67%
    10:00 +23°C° 0 mm 4 m/S 759 mmHg 59%
    11:00 +23°C° 0 mm 4 m/S 759 mmHg 54%
    12:00 +25°C° 0 mm 4 m/S 759 mmHg 48%
    13:00 +26°C° 0 mm 4 m/S 759 mmHg 43%
    14:00 +26°C° 0 mm 5 m/S 759 mmHg 43%
    15:00 +26°C° 0 mm 5 m/S 759 mmHg 42%
    16:00 +26°C° 0 mm 5 m/S 759 mmHg 42%
    17:00 +25°C° 0 mm 5 m/S 759 mmHg 46%
    18:00 +23°C° 0 mm 4 m/S 760 mmHg 50%
    19:00 +22°C° 0 mm 4 m/S 760 mmHg 54%
    20:00 +20°C° 0 mm 3 m/S 760 mmHg 63%
    21:00 +18°C° 0 mm 3 m/S 760 mmHg 71%
    22:00 +16°C° 0 mm 3 m/S 761 mmHg 79%
    23:00 +15°C° 0 mm 2 m/S 761 mmHg 83%

    19 Juli, Donnerstag

    Zeit Temperatur Niederschläge Wind Luftdruck Luftfeuchtigkeit
    00:00 +15°C° 0 mm 2 m/S 761 mmHg 86%
    01:00 +14°C° 0 mm 2 m/S 761 mmHg 90%
    02:00 +14°C° 0 mm 2 m/S 761 mmHg 90%
    03:00 +13°C° 0 mm 2 m/S 761 mmHg 91%
    04:00 +13°C° 0 mm 1 m/S 761 mmHg 92%
    05:00 +15°C° 0 mm 2 m/S 761 mmHg 86%
    06:00 +16°C° 0 mm 2 m/S 761 mmHg 79%
    07:00 +18°C° 0 mm 2 m/S 761 mmHg 73%
    08:00 +20°C° 0 mm 2 m/S 761 mmHg 65%
    09:00 +21°C° 0 mm 2 m/S 761 mmHg 58%
    10:00 +24°C° 0 mm 3 m/S 761 mmHg 50%
    11:00 +25°C° 0 mm 3 m/S 761 mmHg 47%
    12:00 +26°C° 0 mm 3 m/S 761 mmHg 45%
    13:00 +27°C° 0 mm 3 m/S 761 mmHg 42%
    14:00 +27°C° 0 mm 3 m/S 760 mmHg 42%
    15:00 +27°C° 0 mm 3 m/S 760 mmHg 42%
    16:00 +27°C° 0 mm 3 m/S 760 mmHg 42%
    17:00 +26°C° 0 mm 3 m/S 760 mmHg 45%
    18:00 +25°C° 0 mm 3 m/S 760 mmHg 48%
    19:00 +24°C° 0 mm 3 m/S 760 mmHg 52%
    20:00 +20°C° 0 mm 3 m/S 760 mmHg 60%
    21:00 +18°C° 0 mm 3 m/S 760 mmHg 68%
    22:00 +16°C° 0 mm 2 m/S 760 mmHg 76%
    23:00 +15°C° 0 mm 2 m/S 760 mmHg 80%

    20 Juli, Freitag

    Zeit Temperatur Niederschläge Wind Luftdruck Luftfeuchtigkeit
    00:00 +14°C° 0 mm 2 m/S 760 mmHg 84%
    01:00 +13°C° 0 mm 2 m/S 760 mmHg 87%
    02:00 +13°C° 0 mm 2 m/S 760 mmHg 88%
    03:00 +13°C° 0 mm 1 m/S 760 mmHg 90%
    04:00 +12°C° 0 mm 1 m/S 760 mmHg 91%
    05:00 +14°C° 0 mm 1 m/S 760 mmHg 85%
    06:00 +15°C° 0 mm 1 m/S 760 mmHg 79%
    07:00 +18°C° 0 mm 1 m/S 760 mmHg 73%
    08:00 +20°C° 0 mm 1 m/S 760 mmHg 64%
    09:00 +22°C° 0 mm 1 m/S 760 mmHg 54%
    10:00 +24°C° 0 mm 1 m/S 760 mmHg 44%
    11:00 +25°C° 0 mm 2 m/S 759 mmHg 41%
    12:00 +26°C° 0 mm 2 m/S 759 mmHg 38%
    13:00 +27°C° 0 mm 2 m/S 759 mmHg 36%
    14:00 +27°C° 0 mm 2 m/S 759 mmHg 36%
    15:00 +27°C° 0 mm 2 m/S 758 mmHg 36%
    16:00 +27°C° 0 mm 2 m/S 758 mmHg 36%
    17:00 +26°C° 0 mm 2 m/S 758 mmHg 41%
    18:00 +25°C° 0 mm 2 m/S 758 mmHg 46%
    19:00 +24°C° 0 mm 2 m/S 757 mmHg 51%
    20:00 +21°C° 0 mm 2 m/S 757 mmHg 56%
    21:00 +19°C° 0 mm 2 m/S 757 mmHg 61%
    22:00 +17°C° 0 mm 2 m/S 757 mmHg 65%
    23:00 +18°C° 0 mm 1 m/S 757 mmHg 66%

    21 Juli, Samstag

    Zeit Temperatur Niederschläge Wind Luftdruck Luftfeuchtigkeit
    00:00 +18°C° 0 mm 1 m/S 757 mmHg 66%
    01:00 +16°C° 0 mm 1 m/S 757 mmHg 66%
    02:00 +16°C° 0,1 mm 1 m/S 757 mmHg 67%
    03:00 +16°C° 0,1 mm 1 m/S 757 mmHg 68%
    04:00 +15°C° 0,1 mm 0 m/S 756 mmHg 70%
    05:00 +15°C° 0,2 mm 0 m/S 756 mmHg 71%
    06:00 +16°C° 0,2 mm 1 m/S 756 mmHg 73%
    07:00 +16°C° 0,2 mm 1 m/S 756 mmHg 75%
    08:00 +18°C° 0,2 mm 1 m/S 756 mmHg 75%
    09:00 +18°C° 0,2 mm 1 m/S 756 mmHg 75%
    10:00 +19°C° 0,2 mm 1 m/S 756 mmHg 75%
    11:00 +20°C° 0,2 mm 1 m/S 756 mmHg 73%
    12:00 +20°C° 0,2 mm 1 m/S 756 mmHg 72%
    13:00 +20°C° 0,2 mm 2 m/S 756 mmHg 70%
    14:00 +20°C° 0,4 mm 2 m/S 756 mmHg 71%
    15:00 +21°C° 0,4 mm 2 m/S 756 mmHg 71%
    16:00 +21°C° 0,4 mm 3 m/S 755 mmHg 72%
    17:00 +20°C° 0,5 mm 3 m/S 755 mmHg 74%
    18:00 +19°C° 0,5 mm 3 m/S 755 mmHg 77%
    19:00 +18°C° 0,5 mm 3 m/S 755 mmHg 79%
    20:00 +17°C° 0 mm 3 m/S 755 mmHg 84%
    21:00 +16°C° 0 mm 2 m/S 755 mmHg 88%
    22:00 +15°C° 0 mm 2 m/S 756 mmHg 92%
    23:00 +15°C° 0 mm 2 m/S 756 mmHg 93%
    Mehr zeigen